Location: Newark
(44.3681°N, 100.3364°W)
Time: 19:04:47
(UTC+00:00)

Explorer 7 - Pass Details

Date: 19 February 2020
Orbit: 485 x 679 km, 50.3° (Epoch: 07 April)

Event Time Altitude Azimuth Distance (km) Brightness Sun altitude
Rises 00:15:05 0° 295° (WNW) 2,764 11.3 -1.0°
Reaches altitude 10° 00:17:29 10° 301° (WNW) 1,831 10.2 -1.4°
Maximum altitude 00:21:30 47° 16° (NNE) 705 7.2 -2.1°
Drops below altitude 10° 00:25:17 10° 92° (E) 1,727 8.7 -2.8°
Enters shadow 00:26:57 - 97° (E) 2,378 9.5 -3.1°
Sets 00:27:29 0° 98° (E) 2,588 - -3.2°
